[[{"header":{"parameterUnit":"m.s-1","parameterCategory":1,"la1":30.2991,"la2":30.254,"lo1":-89.0895,"lo2":-89.0444,"dy":0.0017,"dx":0.0017,"nx":28,"ny":28,"refTime":"2025-07-11T09:00:00:Z","depth":0,"parameterNumber":2,"parameterNumberName":"U-component_of_WINDS"},"data":[0,0,0,0,0,0,0,0,0,0,0,0,0,0,0,0,0,0,0,0,0,0,0,0,0,0,0,0,0,0,0,0,0,0,0,0,0,0,0,0,0,0,0,0,0,0,0,0,0,0,0,0,0,0,0,0,0,0,0.1968,0.197,0,0.2099,0.2101,0.2102,0.2154,0.2153,0.2153,0.2153,0.229,0.2294,0.2298,0,0,0,0,0,0,0,0,0,0,0,0,0,0.1765,0.1769,0.1968,0.197,0.1972,0.2099,0.2101,0.2103,0.2154,0.2153,0.2153,0.2152,0.2288,0.2293,0.2298,0,0,0,0,0,0,0,0,0,0,0,0,0,0.187,0.177,0.1968,0.2012,0.2018,0.2099,0.2101,0.2103,0.2154,0.2153,0.2153,0.2152,0.2287,0.2293,0.2299,0.2346,0,0,0.2317,0.2319,0,0,0,0,0,0,0,0,0.1864,0.1878,0.2004,0.2009,0.2016,0.211,0.208,0.2185,0.2154,0.2102,0.2153,0.2152,0.223,0.2241,0.2267,0.2353,0.2358,0.2317,0.2321,0.2324,0.2325,0,0,0,0,0,0,0,0.1857,0.1873,0.202,0.2006,0.2013,0.2027,0.2041,0.21,0.2168,0.2107,0.2111,0.2125,0.2233,0.2261,0.227,0.236,0.2317,0.2322,0.2326,0.2329,0.2491,0.2492,0,0,0,0,0,0,0.1842,0.1866,0.2016,0.2024,0.1937,0.2031,0.2047,0.208,0.2167,0.218,0.2126,0.2127,0.2251,0.2263,0.2275,0.2337,0.2323,0.2329,0.2333,0.2491,0.2492,0.2492,0,0,0,0,0,0,0.1837,0.1855,0.2011,0.1946,0.1967,0.2035,0.2072,0.2083,0.211,0.2182,0.2194,0.2141,0.2251,0.2267,0.2328,0.2342,0.2332,0.2337,0.249,0.2491,0.2492,0.246,0,0,0,0,0,0,0.1831,0.1853,0.1871,0.1946,0.197,0.206,0.2072,0.2086,0.212,0.2123,0.2199,0.2212,0.2252,0.2319,0.2334,0.235,0.2342,0.2489,0.249,0.2492,0.246,0.2459,0.2459,0,0,0,0,0,0.1824,0.1858,0.1872,0.189,0.1994,0.2061,0.2075,0.212,0.2121,0.214,0.2186,0.2209,0.2338,0.2324,0.2342,0.236,0.2488,0.249,0.2492,0.246,0.2459,0.2459,0,0,0,0,0,0,0.1784,0.1868,0.1885,0.1944,0.1994,0.2069,0.2095,0.2118,0.217,0.2171,0.2226,0.2243,0.2299,0.2336,0.2319,0.2411,0.2415,0.242,0.2385,0.2385,0.2385,0.2375,0.2347,0,0,0,0,0,0.1781,0.1827,0.1899,0.1944,0.1969,0.2027,0.2058,0.2088,0.2143,0.2165,0.2216,0.2269,0.2322,0.2355,0.2408,0.2465,0.2483,0.2486,0.2486,0.2486,0.249,0.2523,0.2525,0.2498,0.2498,0.2498,0,0,0.1778,0.183,0.1856,0.1937,0.198,0.2027,0.2045,0.2095,0.213,0.2173,0.2234,0.2272,0.2335,0.2394,0.2423,0.2427,0.2501,0.2488,0.2487,0.2491,0.2525,0.2527,0.2529,0.2499,0.2499,0.2499,0,0,0.1795,0.1839,0.1881,0.1923,0.1987,0.2026,0.2036,0.2107,0.2134,0.2195,0.2228,0.2272,0.2361,0.2405,0.2439,0.2471,0.2495,0.2487,0.2486,0.2518,0.252,0.2522,0.2534,0.2537,0.2491,0.2491,0.2491,0,0.1783,0.1854,0.19,0.1947,0.1982,0.2022,0.2065,0.2104,0.2183,0.2206,0.2209,0.2322,0.2367,0.2437,0.2445,0.2471,0.2485,0.2479,0.2515,0.2518,0.2521,0.2533,0.2537,0.2489,0.2489,0.249,0.249,0,0.1836,0.1885,0.1911,0.1984,0.2023,0.2068,0.2121,0.2154,0.218,0.2218,0.228,0.2336,0.24,0.2419,0.2446,0.2492,0.2493,0.2505,0.251,0.2521,0.2533,0.2538,0.2487,0.2488,0.2488,0.2489,0,0,0.1832,0.1929,0.1938,0.1972,0.2045,0.2085,0.2131,0.2193,0.222,0.2273,0.2314,0.2388,0.2399,0.2438,0.247,0.2497,0.2519,0.2506,0.2509,0.2507,0.2575,0.2565,0.2569,0.2535,0.2536,0.2537,0.2569,0,0.186,0.1944,0.1986,0.2053,0.2099,0.2137,0.2178,0.2227,0.2264,0.2309,0.2351,0.2402,0.2413,0.2437,0.2465,0.2511,0.2534,0.2509,0.2574,0.2576,0.2558,0.2576,0.2566,0.2594,0.2574,0.2575,0.2576,0,0.1903,0.1954,0.2025,0.2092,0.2113,0.2149,0.2208,0.2251,0.2308,0.2333,0.2375,0.2406,0.2457,0.2458,0.2529,0.2511,0.2541,0.2567,0.2569,0.2577,0.2577,0.2585,0.2604,0.2608,0.2584,0.2583,0.2582,0,0.1894,0.198,0.2033,0.2061,0.2141,0.2165,0.22,0.2256,0.229,0.2343,0.2365,0.2423,0.2455,0.2499,0.2545,0.2541,0.2612,0.2617,0.2635,0.2634,0.2649,0.2647,0.2673,0.2667,0.2667,0.2667,0.2667,0,0.192,0.1962,0.203,0.2063,0.2111,0.2159,0.2206,0.2243,0.2293,0.2334,0.2371,0.2409,0.2467,0.2513,0.2549,0.2603,0.2617,0.2639,0.2648,0.2636,0.2633,0.2656,0.2656,0.2668,0.2668,0.2667,0.2667,0,0.1918,0.1965,0.2026,0.2096,0.2115,0.2147,0.2207,0.2241,0.2279,0.2331,0.2346,0.2406,0.2462,0.2511,0.2586,0.261,0.2665,0.2676,0.2645,0.265,0.2665,0.2663,0.2708,0.2716,0.2703,0.2703,0.2703,0,0.1932,0.1965,0.2038,0.2068,0.2101,0.2149,0.2183,0.2232,0.2266,0.2333,0.2359,0.2417,0.2466,0.2553,0.2604,0.266,0.2673,0.2685,0.2682,0.2669,0.2674,0.2671,0.2675,0.2685,0.2685,0.2685,0.2684,0,0.1952,0.1973,0.2021,0.2077,0.2117,0.2163,0.2211,0.2234,0.2291,0.2328,0.2385,0.2422,0.2497,0.2554,0.2616,0.2653,0.2678,0.2685,0.2692,0.268,0.2661,0.2671,0.2644,0.2684,0.2684,0.2684,0.2684,0.2684,0.1958,0.1989,0.2045,0.2097,0.2138,0.2181,0.2216,0.2258,0.2306,0.237,0.2395,0.2453,0.2509,0.2595,0.2631,0.2677,0.2682,0.2692,0.2695,0.2697,0.2695,0.2652,0.2689,0.2689,0.2689,0.2689,0.2689,0,0.198,0.2018,0.2065,0.213,0.2171,0.219,0.2244,0.2277,0.2326,0.2376,0.2423,0.2488,0.2543,0.2598,0.2656,0.2682,0.2695,0.2696,0.2695,0.2703,0.2687,0.2675,0.2684,0.2684,0.2684,0.2684,0.2684,0.2684,0.1996,0.2049,0.2077,0.2151,0.2188,0.2244,0.2273,0.2314,0.2353,0.2424,0.2469,0.2504,0.2556,0.2618,0.267,0.2684,0.2704,0.2702,0.272,0.2704,0.2704,0.2704,0.2693,0.2705,0.2705,0.2732,0.2732,0.2732]},{"header":{"parameterUnit":"m.s-1","parameterCategory":1,"la1":30.2991,"la2":30.254,"lo1":-89.0895,"lo2":-89.0444,"dy":0.0017,"dx":0.0017,"nx":28,"ny":28,"refTime":"2025-07-11T09:00:00:Z","depth":0,"parameterNumber":3,"parameterNumberName":"V-component_of_WINDS"},"data":[0,0,0,0,0,0,0,0,0,0,0,0,0,0,0,0,0,0,0,0,0,0,0,0,0,0,0,0,0,0,0,0,0,0,0,0,0,0,0,0,0,0,0,0,0,0,0,0,0,0,0,0,0,0,0,0,0,0,2.1057,2.1057,0,2.1004,2.1004,2.1003,2.1003,2.1004,2.1005,2.1005,2.0947,2.0945,2.0943,0,0,0,0,0,0,0,0,0,0,0,0,0,2.1154,2.1152,2.1057,2.1057,2.1056,2.1005,2.1004,2.1003,2.1003,2.1004,2.1005,2.1006,2.0948,2.0945,2.0943,0,0,0,0,0,0,0,0,0,0,0,0,0,2.1108,2.1152,2.1058,2.105,2.1049,2.1005,2.1004,2.1003,2.1003,2.1004,2.1005,2.1006,2.0949,2.0946,2.0942,2.0901,0,0,2.0932,2.0931,0,0,0,0,0,0,0,0,2.111,2.1104,2.1052,2.1051,2.1049,2.1012,2.1017,2.0969,2.1003,2.102,2.1005,2.1007,2.0968,2.0963,2.095,2.0898,2.0896,2.0932,2.093,2.0929,2.0928,0,0,0,0,0,0,0,2.1113,2.1106,2.1036,2.1051,2.1049,2.1048,2.1042,2.1007,2.0989,2.1019,2.1019,2.1013,2.0967,2.0954,2.0949,2.0895,2.0932,2.0929,2.0927,2.0926,2.0803,2.0802,0,0,0,0,0,0,2.1119,2.1109,2.1038,2.1035,2.1083,2.1045,2.1039,2.1023,2.0989,2.0985,2.1012,2.1013,2.0959,2.0953,2.0947,2.0894,2.0929,2.0926,2.0924,2.0804,2.0803,2.0801,0,0,0,0,0,0,2.1121,2.1112,2.104,2.1072,2.1063,2.1043,2.1024,2.1021,2.1008,2.0984,2.098,2.1002,2.0959,2.0952,2.0912,2.0892,2.0924,2.0921,2.0806,2.0804,2.0802,2.0789,0,0,0,0,0,0,2.1124,2.1113,2.1098,2.1072,2.1061,2.1007,2.1023,2.1019,2.1002,2.1003,2.0973,2.0969,2.096,2.0917,2.0909,2.0888,2.0918,2.0807,2.0805,2.0803,2.0791,2.0787,2.0784,0,0,0,0,0,2.1127,2.1097,2.1098,2.1089,2.1042,2.1006,2.1,2.0991,2.1001,2.0985,2.0969,2.097,2.0896,2.0913,2.0904,2.0882,2.0809,2.0806,2.0803,2.0793,2.0788,2.0784,0,0,0,0,0,0,2.1121,2.1093,2.1094,2.1054,2.1033,2.1007,2.0986,2.0986,2.096,2.0962,2.095,2.0943,2.0903,2.0889,2.0908,2.0839,2.0853,2.0849,2.0849,2.0844,2.084,2.0844,2.0916,0,0,0,0,0,2.1115,2.109,2.1066,2.1033,2.1023,2.1006,2.099,2.0985,2.0962,2.0952,2.0934,2.091,2.0881,2.0862,2.0834,2.079,2.0782,2.077,2.0766,2.0763,2.0758,2.0731,2.0725,2.0792,2.0792,2.0792,0,0,2.1102,2.1084,2.1069,2.1032,2.1014,2.0986,2.0999,2.0969,2.0948,2.0947,2.0908,2.0894,2.0866,2.0824,2.0804,2.081,2.0738,2.076,2.0757,2.0754,2.0728,2.0721,2.0716,2.079,2.079,2.0791,0,0,2.1064,2.1049,2.1019,2.1001,2.0975,2.0965,2.0957,2.0931,2.0921,2.0883,2.0881,2.0855,2.0806,2.0786,2.0769,2.0722,2.0721,2.0714,2.0693,2.0666,2.0661,2.0656,2.0637,2.0631,2.0709,2.0709,2.0709,0,2.1051,2.1011,2.1003,2.0973,2.0956,2.0956,2.0923,2.0906,2.0872,2.0859,2.0868,2.0805,2.0787,2.0738,2.0727,2.0714,2.0703,2.0716,2.0663,2.0658,2.0653,2.0635,2.0628,2.0708,2.0709,2.0709,2.0709,0,2.0995,2.0967,2.0945,2.0913,2.0893,2.0862,2.0848,2.0829,2.0825,2.0813,2.0772,2.075,2.0717,2.0705,2.0701,2.0655,2.0659,2.0666,2.068,2.0646,2.0628,2.0621,2.0707,2.0707,2.0708,2.0708,0,0,2.0951,2.0914,2.0906,2.0891,2.0862,2.0839,2.0807,2.0775,2.0758,2.0734,2.0706,2.0664,2.0669,2.065,2.0643,2.0621,2.0582,2.0629,2.0628,2.0619,2.0527,2.0521,2.0513,2.0582,2.0581,2.058,2.0528,0,2.0908,2.0853,2.0845,2.0795,2.0767,2.0766,2.0738,2.0716,2.0704,2.0677,2.0663,2.0632,2.0643,2.0631,2.0608,2.0591,2.0563,2.0595,2.0553,2.0551,2.0557,2.0504,2.0498,2.045,2.0521,2.052,2.052,0,2.0851,2.0826,2.0774,2.0747,2.0735,2.071,2.0679,2.0655,2.0629,2.0621,2.06,2.0596,2.056,2.0578,2.0528,2.055,2.0532,2.0521,2.0519,2.0512,2.0532,2.0494,2.0435,2.0427,2.0509,2.051,2.0511,0,2.0821,2.0774,2.0737,2.0724,2.0692,2.0674,2.066,2.0635,2.0616,2.0589,2.0576,2.0545,2.0527,2.0502,2.0489,2.0503,2.0439,2.0456,2.0429,2.0429,2.0414,2.0415,2.0349,2.0406,2.0407,2.0407,2.0407,0,2.0772,2.074,2.0722,2.0699,2.0662,2.0652,2.0615,2.0601,2.0579,2.0551,2.0549,2.0522,2.0507,2.0478,2.0468,2.0426,2.0419,2.041,2.0407,2.0409,2.0409,2.0395,2.0397,2.0405,2.0405,2.0406,2.0406,0,2.0732,2.0719,2.0678,2.0651,2.0643,2.0617,2.0593,2.0569,2.0557,2.0522,2.0513,2.0493,2.0458,2.0443,2.0401,2.0393,2.0345,2.0346,2.0354,2.0352,2.0326,2.0327,2.0247,2.0234,2.0302,2.0302,2.0301,0,2.0701,2.0676,2.0647,2.0628,2.0614,2.0584,2.0565,2.0554,2.0533,2.0501,2.0481,2.0447,2.0418,2.0363,2.0343,2.031,2.0308,2.0282,2.0303,2.0305,2.0304,2.0305,2.0301,2.0278,2.0277,2.0276,2.0276,0,2.0646,2.0641,2.0614,2.0584,2.0561,2.0536,2.0512,2.0497,2.0482,2.0459,2.0424,2.0402,2.0359,2.0323,2.0289,2.0272,2.027,2.027,2.0261,2.0262,2.0266,2.0261,2.0341,2.0271,2.0272,2.0272,2.0272,2.0273,2.0608,2.0585,2.056,2.0529,2.051,2.0487,2.0463,2.0448,2.0419,2.0383,2.0378,2.034,2.0313,2.0266,2.0248,2.0217,2.0223,2.0212,2.0208,2.0205,2.0202,2.0274,2.0211,2.0211,2.0211,2.0211,2.0211,0,2.0551,2.0535,2.0507,2.0473,2.0448,2.0451,2.0424,2.0402,2.0369,2.0345,2.0317,2.0276,2.0242,2.022,2.0184,2.0163,2.0161,2.0154,2.0154,2.015,2.02,2.021,2.0156,2.0156,2.0156,2.0156,2.0156,2.0156,2.0518,2.0478,2.047,2.042,2.0404,2.0367,2.0351,2.0329,2.031,2.0264,2.0236,2.0222,2.0198,2.016,2.0128,2.0122,2.0108,2.01,2.0094,2.0141,2.0147,2.0152,2.0161,2.0098,2.0098,2.0046,2.0046,2.0046]}]]